| time (UTC) | temp F | wind direction | speed knots | gust knots | rain 1hr in | rain 24hr in | rain mn in | humidity % | barometer mb |
| 20260504140109 | 57 | 0 | 0.0 | 0.9 | 0.00 | 0.00 | 0.00 | 75 | 1017.7 |
| 20260504120110 | 0 | 0.0 | 0.0 | 0.00 | 0.00 | 0.00 | 1017.8 | ||
| 20260504110107 | 0 | 0.0 | 0.0 | 0.00 | 0.00 | 0.00 | 1017.3 | ||
| 20260504081555 | 0 | 0.0 | 0.0 | 0.00 | 0.00 | 0.00 | 1016.9 | ||
| 20260504060106 | 0 | 0.0 | 0.0 | 0.00 | 0.00 | 0.00 | 1017.6 | ||
| 20260504050107 | 0 | 0.0 | 0.0 | 0.00 | 0.00 | 0.00 | 1017.8 | ||
| 20260504044554 | 0 | 0.0 | 0.0 | 0.00 | 0.00 | 0.00 | 1018.0 | ||
| 20260504043057 | 0 | 0.0 | 0.0 | 0.00 | 0.00 | 0.00 | 1017.9 | ||
| 20260504041556 | 0 | 0.0 | 0.0 | 0.00 | 0.00 | 0.00 | 1018.0 | ||
| 20260504034555 | 49 | 0 | 0.0 | 0.0 | 0.00 | 0.00 | 0.00 | 80 | 1017.9 |
| 20260504033106 | 50 | 0 | 0.0 | 0.0 | 0.00 | 0.00 | 0.00 | 79 | 1018.0 |
| 20260504031603 | 50 | 0 | 0.0 | 0.0 | 0.00 | 0.00 | 0.00 | 78 | 1018.1 |
| 20260504030056 | 51 | 0 | 0.0 | 0.0 | 0.00 | 0.00 | 0.00 | 77 | 1018.0 |
| 20260504024601 | 51 | 0 | 0.0 | 0.0 | 0.00 | 0.00 | 0.00 | 76 | 1018.0 |
| 20260504023059 | 52 | 0 | 0.0 | 0.0 | 0.00 | 0.00 | 0.00 | 74 | 1017.9 |
| 20260504021558 | 53 | 0 | 0.0 | 0.0 | 0.00 | 0.00 | 0.00 | 72 | 1017.7 |
| 20260504020057 | 54 | 0 | 0.0 | 0.0 | 0.00 | 0.00 | 0.00 | 69 | 1017.6 |
| 20260504014602 | 55 | 0 | 0.0 | 0.0 | 0.00 | 0.00 | 0.00 | 68 | 1017.0 |
| 20260504013109 | 55 | 0 | 0.0 | 0.0 | 0.00 | 0.00 | 0.00 | 66 | 1017.0 |
| 20260504011554 | 57 | 0 | 0.0 | 0.0 | 0.00 | 0.00 | 0.00 | 63 | 1016.9 |
| 20260504004613 | 58 | 0 | 0.0 | 0.0 | 0.00 | 0.00 | 0.00 | 59 | 1016.7 |
| 20260504003101 | 59 | 0 | 0.0 | 0.0 | 0.00 | 0.00 | 0.00 | 56 | 1016.5 |
| 20260504001558 | 60 | 0 | 0.0 | 0.0 | 0.00 | 0.00 | 0.00 | 54 | 1016.5 |
| 20260504000056 | 61 | 0 | 0.0 | 0.0 | 0.00 | 0.00 | 0.00 | 52 | 1016.5 |
| 20260503234559 | 62 | 0 | 0.0 | 0.0 | 0.00 | 0.00 | 0.00 | 52 | 1016.7 |
| 20260503233059 | 62 | 0 | 0.0 | 0.0 | 0.00 | 0.00 | 0.00 | 51 | 1016.6 |
| 20260503231557 | 63 | 0 | 0.0 | 0.0 | 0.00 | 0.00 | 0.00 | 54 | 1016.6 |
| 20260503230115 | 63 | 0 | 0.0 | 0.9 | 0.00 | 0.00 | 0.00 | 48 | 1016.7 |
| 20260503224558 | 64 | 0 | 0.0 | 0.9 | 0.00 | 0.00 | 0.00 | 46 | 1016.8 |
| 20260503223100 | 64 | 0 | 0.0 | 0.0 | 0.00 | 0.00 | 0.00 | 47 | 1016.7 |
| 20260503221605 | 64 | 0 | 0.0 | 0.9 | 0.00 | 0.00 | 0.00 | 46 | 1016.8 |
| 20260503214601 | 65 | 0 | 0.0 | 0.9 | 0.00 | 0.00 | 0.00 | 44 | 1016.7 |
| 20260503213100 | 65 | 0 | 0.0 | 0.9 | 0.00 | 0.00 | 0.00 | 44 | 1016.9 |
| 20260503211604 | 65 | 0 | 0.0 | 0.9 | 0.00 | 0.00 | 0.00 | 43 | 1017.0 |
| 20260503210055 | 65 | 0 | 0.0 | 2.6 | 0.00 | 0.00 | 0.00 | 39 | 1017.1 |
| 20260503204559 | 65 | 0 | 0.0 | 0.9 | 0.00 | 0.00 | 0.00 | 43 | 1017.1 |
| 20260503203101 | 65 | 0 | 0.0 | 0.9 | 0.00 | 0.00 | 0.00 | 45 | 1017.4 |
| 20260503201558 | 65 | 0 | 0.0 | 1.7 | 0.00 | 0.00 | 0.00 | 43 | 1017.7 |
| 20260503200056 | 65 | 0 | 0.0 | 2.6 | 0.00 | 0.00 | 0.00 | 44 | 1017.9 |
| 20260503194554 | 65 | 0 | 0.0 | 0.9 | 0.00 | 0.00 | 0.00 | 43 | 1018.2 |
| 20260503193059 | 64 | 116 | 0.0 | 0.9 | 0.00 | 0.00 | 0.00 | 48 | 1018.3 |
| 20260503191557 | 64 | 0 | 0.0 | 0.9 | 0.00 | 0.00 | 0.00 | 47 | 1018.7 |
| 20260503190058 | 64 | 131 | 0.0 | 1.7 | 0.00 | 0.00 | 0.00 | 48 | 1018.9 |
| 20260503184608 | 64 | 0 | 0.0 | 0.9 | 0.00 | 0.00 | 0.00 | 45 | 1019.0 |
| 20260503183057 | 64 | 0 | 0.0 | 1.7 | 0.00 | 0.00 | 0.00 | 46 | 1019.3 |
| 20260503181601 | 65 | 0 | 0.0 | 1.7 | 0.00 | 0.00 | 0.00 | 45 | 1019.3 |
| 20260503180058 | 65 | 0 | 0.0 | 3.5 | 0.00 | 0.00 | 0.00 | 45 | 1019.5 |
| 20260503174607 | 66 | 91 | 0.0 | 1.7 | 0.00 | 0.00 | 0.00 | 45 | 1019.5 |
| 20260503173057 | 66 | 0 | 0.0 | 0.9 | 0.00 | 0.00 | 0.00 | 45 | 1019.7 |
| 20260503171556 | 66 | 0 | 0.0 | 0.9 | 0.00 | 0.00 | 0.00 | 47 | 1019.9 |